Time,B instrument,Bx,By,Bz,sigma B,Ion instrument,Status,Tp_par,Tp_perp,carrot,r_sun,clat,clong,earth_he_angle,n_p,vp_x,vp_y,vp_z,vth_p_par,vth_p_perp
1975-03-10 00:00:23,1,22.6714,2.97143,7.55714,1.75197,2,1,53749.8,51025.0,1625,0.33149093,-4.0519581,163.62747,52.766144,53.4052,288.882,0.542413,2.81696,29.7883,29.0235
1975-03-10 00:01:04,1,21.4143,-7.5,6.05714,2.36177,2,1,154415.0,51315.0,1625,0.33148557,-4.0515118,163.62518,52.769714,62.7176,290.624,14.5802,-4.86524,50.4897,29.1058
1975-03-10 00:01:44,1,22.6625,-9.3,2.05,3.68949,2,1,30361.6,47703.3,1625,0.33148557,-4.0515118,163.61934,52.76973,35.9197,284.197,10.0883,-14.1147,22.3882,28.0629
1975-03-10 00:02:25,1,24.8714,-5.5,8.82857,4.43796,2,1,90304.5,58646.9,1625,0.33148021,-4.0510645,163.61705,52.7733,68.2556,276.78,12.446,-4.56657,38.6111,31.1158
1975-03-10 00:03:05,1,26.825,-2.9,10.5,0.588961,2,1,115306.0,53733.8,1625,0.33147484,-4.0506172,163.61478,52.776886,67.8758,296.077,1.35918,-6.52525,43.6298,29.7839
1975-03-10 00:03:46,1,24.5125,-2.625,10.125,1.93968,2,1,74202.4,43770.4,1625,0.33147484,-4.0506172,163.60892,52.776886,57.863,291.941,1.35997,-9.59376,34.9999,26.8812
1975-03-10 00:04:26,1,26.9625,-0.325,7.2625,2.20149,2,1,58174.9,50143.7,1625,0.33146948,-4.0501709,163.60469,52.780472,56.4279,290.622,0.964833,-6.40155,30.9903,28.7717
1975-03-10 00:05:07,1,28.0714,-2.98571,8.91429,0.792052,2,1,99630.1,51784.3,1625,0.33146411,-4.0497236,163.60242,52.784058,58.9675,291.928,-0.22658,-4.06111,40.5558,29.2386
1975-03-10 00:05:47,1,27.9571,-3.75714,8.28571,0.393311,2,1,66010.2,46371.8,1625,0.33146411,-4.0497236,163.59656,52.784058,56.3471,290.116,4.54674,-2.62295,33.0114,27.6685
1975-03-10 00:06:28,1,28.0875,-2.625,9.2375,1.08181,2,1,47146.4,49311.0,1625,0.33145875,-4.0492764,163.59428,52.787643,57.6398,287.596,4.25159,-2.39475,27.8986,28.5318
1975-03-10 00:07:08,1,27.2,-6.0375,5.1,0.57214,2,1,67034.6,44324.7,1625,0.33145338,-4.04883,163.59201,52.791229,61.7439,289.091,6.85724,-0.625676,33.2665,27.0508
1975-03-10 00:07:49,1,27.2429,-8.08571,3.47143,0.282843,2,1,79421.0,44109.4,1625,0.33145338,-4.0488291,163.58615,52.791229,66.6171,290.102,9.31785,1.00232,36.2098,26.9851
1975-03-10 00:08:29,1,26.9,-8.06667,1.93333,0.860233,1,1,58522.7,53200.1,1625,0.33144802,-4.0483828,163.58192,52.794815,60.0402,287.797,6.12742,6.10921,31.0828,29.6356
1975-03-10 00:09:10,1,26.7083,-8.39167,4.33333,0.500416,1,1,64604.4,52225.9,1625,0.33144265,-4.0479355,163.57965,52.798401,61.5691,288.902,7.52755,2.18313,32.6579,29.363
1975-03-10 00:09:50,1,26.8273,-8.12727,2.02727,0.508604,1,1,60445.5,51068.1,1625,0.33144265,-4.0479355,163.57379,52.798401,58.5509,286.874,7.85161,7.60938,31.5893,29.0357
1975-03-10 00:10:31,1,27.1,-8.55455,3.77273,0.899954,1,1,60793.1,50725.8,1625,0.33143729,-4.0474882,163.57152,52.801987,58.6381,290.089,6.65513,2.70746,31.68,28.9382
1975-03-10 00:11:11,1,26.7917,-8.95833,4.33333,1.29952,1,1,58022.2,50416.2,1625,0.33143193,-4.0470419,163.56923,52.805557,57.3031,288.597,7.50735,2.61845,30.9496,28.8498
1975-03-10 00:11:52,1,27.1,-8.7,4.1,3.55271e-15,1,1,56885.9,49274.1,1625,0.33143193,-4.0470409,163.56339,52.805573,54.9641,290.977,6.64172,3.01161,30.645,28.5212
1975-03-10 00:12:32,2,26.84,-8.995,1.8975,0.410236,1,1,59150.7,51251.5,1625,0.33142656,-4.0465946,163.55914,52.809143,57.2895,289.324,5.97338,0.372115,31.2491,29.0878
1975-03-10 00:13:13,2,26.9175,-8.255,-0.185,0.249837,1,1,61981.8,50643.3,1625,0.3314212,-4.0461473,163.55687,52.812729,57.1679,289.188,4.491,3.77866,31.9882,28.9147
1975-03-10 00:13:53,-1,nan,nan,nan,nan,1,-3,nan,nan,1625,0.3314212,-4.0461473,163.55101,52.812729,nan,288.967,5.66603,7.62358,nan,nan
1975-03-10 00:14:34,1,27.2455,-8.08182,4.1,0.465504,1,1,57645.2,50303.5,1625,0.33141583,-4.0457001,163.54874,52.816315,57.1793,288.551,5.51751,3.75521,30.8489,28.8175
1975-03-10 00:15:14,1,27.0667,-8.55,5.26667,0.587603,1,1,58661.0,49753.6,1625,0.33141053,-4.0452538,163.54646,52.819901,54.8001,289.857,5.97778,2.23991,31.1195,28.6596
1975-03-10 00:15:55,1,26.6364,-9.41818,3.33636,1.42342,1,1,61117.4,50825.0,1625,0.33141047,-4.0452538,163.5406,52.819901,58.9305,289.73,5.91338,7.2427,31.7644,28.9665
1975-03-10 00:16:35,1,25.5273,-12.1818,2.46364,0.666308,1,1,63577.7,53407.5,1625,0.33140516,-4.0448065,163.53638,52.823486,58.3775,292.933,14.6266,6.63311,32.3974,29.6933
1975-03-10 00:17:16,1,27.2167,-9.15,4.86667,0.790218,1,1,55822.3,50515.9,1625,0.3313998,-4.0443602,163.5341,52.827072,56.8985,290.342,7.088,1.10432,30.3572,28.8783
1975-03-10 00:17:56,1,27.3,-8.7,2.88889,0.881217,1,1,56998.5,52183.6,1625,0.3313998,-4.0443592,163.52824,52.827072,56.9301,289.754,6.97412,4.73388,30.6754,29.3511
1975-03-10 00:18:37,-1,nan,nan,nan,nan,2,4,nan,nan,1625,0.33139443,-4.0439129,163.52597,52.830658,nan,nan,nan,nan,nan,nan
1975-03-10 00:19:17,1,26.125,-10.0,-1.1,1.29494,2,1,83775.7,56110.0,1625,0.33138907,-4.0434656,163.5237,52.834244,70.088,292.253,11.8311,8.95476,37.1892,30.4353
1975-03-10 00:19:58,1,26.875,-8.675,0.15,0.520817,2,1,74323.6,47503.8,1625,0.33138907,-4.0434656,163.51784,52.834244,62.6909,295.074,11.5086,7.46732,35.0285,28.0041
1975-03-10 00:20:38,1,26.725,-9.3875,0.8,0.507906,2,1,73250.3,46030.5,1625,0.33138371,-4.0430183,163.51361,52.83783,63.2593,292.996,12.1296,7.59737,34.7746,27.5665
1975-03-10 00:21:19,1,25.2556,-10.9778,2.85556,1.12349,2,1,52445.9,49802.7,1625,0.33137834,-4.042572,163.51132,52.8414,58.2284,289.919,13.9843,8.76308,29.4248,28.6737
1975-03-10 00:21:59,1,24.975,-11.125,-1.6,0.937417,2,1,49871.3,47758.9,1625,0.33137834,-4.0425711,163.50548,52.841415,64.8409,295.777,20.5104,8.65526,28.6935,28.0792
1975-03-10 00:22:40,1,26.3625,-7.7875,0.7625,2.05141,2,1,64912.6,50599.4,1625,0.33137298,-4.0421247,163.50319,52.844986,64.5256,294.355,16.5159,4.51299,32.7358,28.9022
1975-03-10 00:23:20,1,26.7375,-7.0,0.0875,2.82107,2,1,59389.8,50450.7,1625,0.33136761,-4.0416775,163.50092,52.848572,66.3745,290.5,4.96922,5.04241,31.3122,28.8597
1975-03-10 00:24:01,1,26.2714,-9.48571,1.58571,1.32511,2,1,82151.1,51498.8,1625,0.33136225,-4.0412312,163.49864,52.852158,63.4939,290.661,13.3443,5.28316,36.8268,29.1579
1975-03-10 00:24:41,1,22.9286,-14.1714,-1.05714,0.972898,2,1,69218.5,55570.3,1625,0.33136225,-4.0412302,163.49083,52.852158,67.7143,297.008,21.483,9.15528,33.8041,30.2886
1975-03-10 00:25:22,1,24.2,-12.85,-0.2,1.42829,2,1,66540.4,44845.9,1625,0.33135688,-4.0407839,163.48856,52.855743,66.5685,294.136,12.5475,5.78315,33.1437,27.2094
1975-03-10 00:26:02,1,23.3625,-13.7375,0.1,2.31726,2,1,56549.9,52425.4,1625,0.33135152,-4.0403366,163.48628,52.859329,62.3489,292.346,19.6488,5.42055,30.5544,29.4191
1975-03-10 00:26:43,1,18.6625,-18.2375,-3.3375,3.28398,2,1,65131.6,47319.1,1625,0.33135152,-4.0403366,163.48042,52.859329,61.6872,299.11,25.7664,8.33247,32.7909,27.9496
1975-03-10 00:27:23,1,15.95,-19.575,-5.6125,3.11456,2,1,69813.6,54641.9,1625,0.33134615,-4.0398893,163.47815,52.862915,71.9261,318.067,32.8204,26.9623,33.9491,30.0345
1975-03-10 00:28:04,1,20.225,-17.575,-0.95,3.45778,2,1,90732.3,56237.6,1625,0.33134079,-4.039443,163.47588,52.866501,65.5012,306.025,29.1988,11.0079,38.7025,30.4699
1975-03-10 00:28:44,1,20.3875,-17.35,-0.9125,2.49694,2,1,84986.1,52180.4,1625,0.33134079,-4.039443,163.46806,52.866501,64.9754,301.306,29.0048,8.3403,37.4569,29.3502
1975-03-10 00:29:25,1,19.7286,-19.0143,1.21429,2.28884,2,1,80542.7,69329.8,1625,0.33133543,-4.0389957,163.46579,52.870087,68.5952,298.24,28.9325,7.0888,36.4646,33.8312
1975-03-10 00:30:05,1,14.4375,-23.1,-3.1,1.53618,2,1,68053.8,47667.9,1625,0.33133012,-4.0385494,163.46352,52.873672,68.4975,314.995,36.6014,11.4992,33.5185,28.0525
1975-03-10 00:30:46,1,17.8375,-20.55,-3.7,1.61008,2,1,50083.9,55207.7,1625,0.33133006,-4.0385485,163.45766,52.873672,70.1586,305.822,30.4809,10.67,28.7546,30.1896
1975-03-10 00:31:26,1,18.675,-19.8875,-2.2,1.75868,2,1,77542.1,53283.8,1625,0.33132476,-4.0381021,163.45538,52.877258,67.2554,305.904,30.4989,6.11477,35.7789,29.6589
1975-03-10 00:32:07,1,15.9375,-21.25,-1.1,1.44736,2,1,53596.1,53431.9,1625,0.33131939,-4.0376549,163.45309,52.880829,60.9471,300.803,37.8971,10.6379,29.7457,29.7001
1975-03-10 00:32:47,1,20.6857,-18.2714,1.48571,1.35496,2,1,50270.1,61368.2,1625,0.33131939,-4.0376549,163.44724,52.880829,66.2903,297.887,31.6848,-0.0609611,28.808,31.8295
1975-03-10 00:33:28,1,19.6125,-19.1875,0.8875,0.758803,2,1,60326.5,55050.3,1625,0.33131403,-4.0372076,163.44301,52.884415,68.9699,298.632,29.1308,6.76801,31.5582,30.1466
1975-03-10 00:34:08,1,21.0875,-17.825,3.2625,1.24411,2,1,67231.6,48821.5,1625,0.33130866,-4.0367613,163.44073,52.888,70.1256,295.504,26.0502,3.32304,33.3154,28.3899
1975-03-10 00:34:49,1,19.6375,-18.9625,4.3375,3.06301,2,1,52025.0,50935.6,1625,0.33130866,-4.0367603,163.43488,52.888,67.0479,299.965,37.2513,-0.228965,29.3065,28.998
1975-03-10 00:35:29,1,20.4375,-17.9375,1.9125,1.74665,2,1,67365.7,43720.2,1625,0.3313033,-4.036314,163.4326,52.891586,66.79,291.773,31.3043,7.00375,33.3486,26.8658
1975-03-10 00:36:10,1,22.1143,-15.8,5.28571,1.20458,2,1,66870.5,50837.3,1625,0.33129793,-4.0358667,163.43033,52.895172,66.3179,289.371,24.4491,0.691073,33.2258,28.97
1975-03-10 00:36:50,1,23.1571,-13.7,0.128571,0.527992,2,1,49874.8,53830.5,1625,0.33129793,-4.0358667,163.42447,52.895172,69.6222,288.101,22.2053,9.33402,28.6945,29.8107
1975-03-10 00:37:31,1,25.0143,-7.08571,8.71429,3.84978,2,1,35370.3,45290.7,1625,0.33129257,-4.0354195,163.42024,52.898758,54.2905,291.12,28.224,22.6937,24.1645,27.344
1975-03-10 00:38:11,1,24.4857,-9.64286,9.7,1.77062,2,1,58409.4,47173.5,1625,0.33128721,-4.0349731,163.41797,52.902344,63.8859,289.48,19.221,-4.65472,31.0527,27.9066
1975-03-10 00:38:52,1,24.95,-9.425,8.25,0.894078,2,1,63246.1,47480.9,1625,0.33128721,-4.0349731,163.41211,52.902344,74.9182,288.655,12.3232,-4.01904,32.3128,27.9974
1975-03-10 00:39:32,1,24.75,-11.2,4.6,0.685565,2,1,68308.2,48570.0,1625,0.33128184,-4.0345259,163.40984,52.90593,67.4935,287.245,15.46,-0.361062,33.581,28.3166
1975-03-10 00:40:13,1,24.9571,-10.6286,4.9,0.409081,2,1,63807.2,49060.2,1625,0.33127648,-4.0340786,163.40756,52.909515,75.0128,288.434,16.6079,-0.414704,32.4558,28.4592
1975-03-10 00:40:53,1,25.6714,-9.17143,5.64286,0.826845,2,1,82906.6,58690.8,1625,0.33127648,-4.0340786,163.4017,52.909515,77.4368,283.222,17.6083,0.435103,36.9958,31.1274
1975-03-10 00:41:34,1,25.325,-10.3375,5.9,0.457404,2,1,85810.1,57403.9,1625,0.33127111,-4.0336323,163.39748,52.913101,78.1031,286.017,13.4479,1.57851,37.6381,30.7843
1975-03-10 00:42:14,1,22.875,-13.475,9.7375,1.70766,2,1,62914.8,57218.1,1625,0.33126575,-4.033185,163.39519,52.916672,71.7127,293.803,24.0608,-4.85426,32.2281,30.7344
1975-03-10 00:42:55,1,24.4375,-8.85,11.75,0.867378,2,1,45878.5,42062.8,1625,0.33126575,-4.033185,163.38934,52.916687,55.8129,289.309,11.9559,-9.63807,27.5209,26.3516
1975-03-10 00:43:35,1,23.675,-10.9875,10.95,0.490376,2,1,79330.4,57573.2,1625,0.33126038,-4.0327377,163.38705,52.920258,70.7226,288.328,17.8639,-9.24425,36.1891,30.8296
1975-03-10 00:44:16,1,23.25,-9.5875,13.8,0.501093,2,1,63597.1,55479.1,1625,0.33125502,-4.0322914,163.38478,52.923843,68.433,289.396,13.3166,-11.2326,32.4023,30.2637
1975-03-10 00:44:56,1,23.075,-9.4875,13.8,0.856136,2,1,72904.6,55904.3,1625,0.33125502,-4.0322905,163.37892,52.923843,79.7592,292.223,16.4685,-13.9393,34.6925,30.3795
1975-03-10 00:45:37,1,22.2,-12.725,12.275,0.388909,2,1,63958.1,50625.9,1625,0.33124971,-4.0318441,163.37469,52.927429,71.749,289.779,16.958,-9.73552,32.4942,28.9097
1975-03-10 00:46:17,1,22.0,-10.5,16.8429,0.914732,2,1,63759.3,51981.6,1625,0.33124435,-4.0313969,163.37242,52.931015,61.9489,290.279,14.9192,-15.7201,32.4437,29.2943
1975-03-10 00:46:58,1,20.8375,-9.0875,19.95,0.522913,2,1,68389.8,55462.8,1625,0.33124435,-4.0313969,163.36656,52.931015,65.7659,299.117,11.0101,-21.0754,33.6011,30.2593
1975-03-10 00:47:38,1,21.6625,-8.7375,18.6,1.2236,2,1,54293.0,52894.8,1625,0.33123899,-4.0309496,163.36429,52.934601,74.8566,294.028,11.0697,-19.1039,29.9385,29.5505
1975-03-10 00:48:19,1,25.8,-9.71429,5.7,0.885484,2,1,79888.1,51080.2,1625,0.33123362,-4.0305033,163.36201,52.938187,74.7115,293.752,10.8038,0.213588,36.3161,29.0392
1975-03-10 00:48:59,1,25.3889,-10.5222,8.14444,0.568298,2,1,82411.8,50214.1,1625,0.33123362,-4.0305033,163.35616,52.938187,70.5345,288.829,14.3433,-1.00368,36.8852,28.7919
1975-03-10 00:49:40,1,25.1625,-11.1375,7.6,0.854217,2,1,67426.0,43667.4,1625,0.33122826,-4.030056,163.35193,52.941772,69.4885,290.723,12.7773,-1.74731,33.3635,26.8495
1975-03-10 00:50:20,1,26.1125,-8.125,8.4875,0.767504,2,1,89729.9,49840.5,1625,0.33122289,-4.0296087,163.34966,52.945358,67.9789,288.415,5.77751,-5.77715,38.4881,28.6846
1975-03-10 00:51:01,1,26.0,-9.01429,7.52857,0.374711,2,1,68404.5,52342.9,1625,0.33121753,-4.0291624,163.34737,52.948929,70.1277,287.832,13.0195,-3.38711,33.6047,29.3959
1975-03-10 00:51:41,1,26.1714,-6.64286,10.4571,0.274791,2,1,83115.6,57937.2,1625,0.33121753,-4.0291624,163.34152,52.948944,79.3949,288.844,9.71123,-9.55296,37.0424,30.9269
1975-03-10 00:52:22,1,26.3125,-8.5125,7.9,0.595556,2,1,73518.1,48607.4,1625,0.33121216,-4.0287151,163.33923,52.952515,73.0778,287.51,11.4472,-4.21617,34.8382,28.3275
1975-03-10 00:53:02,1,25.5125,-10.075,4.8,0.804965,2,1,74462.1,57761.2,1625,0.3312068,-4.0282679,163.33696,52.9561,71.9434,286.073,16.9574,-1.01961,35.0611,30.8799
1975-03-10 00:53:43,1,26.3,-5.9,10.4,0.466369,2,1,63736.4,50767.8,1625,0.3312068,-4.0282679,163.32915,52.9561,74.8004,289.709,7.75073,-11.2034,32.4378,28.9502
1975-03-10 00:54:23,1,25.5625,-6.7375,12.95,0.985996,2,1,66151.4,53653.8,1625,0.33120143,-4.0278215,163.32687,52.959686,70.5615,289.706,8.44929,-14.4153,33.0466,29.7617
1975-03-10 00:55:04,1,26.525,-6.6,10.25,0.565133,2,1,62474.6,46967.2,1625,0.33119607,-4.0273743,163.3246,52.963272,68.5031,286.432,7.57142,-7.80144,32.1151,27.8455
1975-03-10 00:55:44,1,26.55,-6.8,8.1125,1.20046,2,1,75101.1,60852.0,1625,0.33119607,-4.0273743,163.31874,52.963272,73.08,286.774,6.64188,-11.9987,35.2112,31.6953
1975-03-10 00:56:25,1,24.8625,-11.35,6.8,0.499844,2,1,76516.6,54222.2,1625,0.33119071,-4.026927,163.31647,52.966858,73.4502,288.34,16.7077,-4.79772,35.5415,29.919
1975-03-10 00:57:05,1,26.15,-7.65,6.95,1.03199,2,1,60146.9,39791.5,1625,0.33118534,-4.0264807,163.31419,52.970444,70.8637,285.778,9.69531,-5.86052,31.5112,25.6303
1975-03-10 00:57:46,1,26.4429,-7.32857,7.82857,0.771429,2,1,88777.5,53326.3,1625,0.33118534,-4.0264797,163.30638,52.970444,75.8153,286.109,10.0237,-6.08141,38.2833,29.6708
1975-03-10 00:58:26,1,25.4714,-9.45714,7.47143,1.11904,2,1,113990.0,41856.7,1625,0.33117998,-4.0260334,163.30411,52.97403,71.5378,288.449,8.0329,-6.87036,43.3801,26.287
1975-03-10 00:59:07,1,26.15,-7.6,9.0375,1.32376,2,1,73190.3,47133.7,1625,0.33117461,-4.0255861,163.30183,52.977615,73.0754,288.616,14.4172,-8.73311,34.7604,27.8948
1975-03-10 00:59:47,1,26.9857,-5.81429,8.57143,0.517056,2,1,60198.1,47648.3,1625,0.33117461,-4.0255861,163.29597,52.977615,66.885,287.992,2.25109,-7.78994,31.5246,28.0467
1975-03-10 01:00:28,1,26.625,-7.05,7.55,0.277263,2,1,93110.3,53612.1,1625,0.33116931,-4.0251389,163.2937,52.981201,71.9851,286.984,7.1507,-7.60897,39.2064,29.7502
1975-03-10 01:01:08,1,26.0625,-9.2875,1.6,1.40657,2,1,49663.5,49366.1,1625,0.33116394,-4.0246897,163.29143,52.984787,69.1901,287.73,11.7523,-1.21074,28.6337,28.5478
1975-03-10 01:01:49,1,27.0286,-6.61429,5.14286,1.43527,2,1,50725.4,55143.6,1625,0.33116394,-4.0246897,163.28362,52.984787,63.1222,286.976,5.51812,-8.73753,28.9381,30.1721
1975-03-10 01:02:29,1,27.1429,-5.62857,4.0,1.6601,2,1,59580.5,49291.6,1625,0.33115864,-4.0242405,163.28134,52.988373,76.3158,286.648,9.80433,2.64067,31.3625,28.5262
1975-03-10 01:03:10,1,27.55,-4.375,4.3,0.772577,2,1,51124.6,50830.7,1625,0.33115327,-4.0237913,163.27908,52.991974,66.7867,284.36,8.41493,-0.301151,29.0518,28.9682
1975-03-10 01:03:50,1,27.85,-1.5875,5.85,2.3035,2,1,66940.1,44299.3,1625,0.33115327,-4.0237913,163.27322,52.991974,72.3502,283.356,1.81405,1.01919,33.2431,27.0431
1975-03-10 01:04:31,1,27.125,0.875,9.05,1.36519,2,1,52053.5,43697.1,1625,0.33114797,-4.0233421,163.27095,52.99556,68.6574,285.78,-4.49606,-8.32855,29.3145,26.8587
1975-03-10 01:05:11,1,26.9714,-4.88571,0.571429,2.294,2,1,69549.5,50984.1,1625,0.33114266,-4.022893,163.26869,52.999161,66.9999,283.659,1.62949,1.68058,33.8848,29.0119
1975-03-10 01:05:52,1,26.375,-6.25,-3.05,0.420565,2,1,61946.3,51324.2,1625,0.3311426,-4.022893,163.26088,52.999161,61.7112,282.923,6.17929,15.6248,31.979,29.1084
1975-03-10 01:06:32,1,25.1375,-5.325,-6.55,1.36536,2,1,53761.5,47144.3,1625,0.3311373,-4.0224438,163.25861,53.002747,62.8583,290.177,9.81725,20.8066,29.7916,27.898
1975-03-10 01:07:13,1,25.7,-2.8625,-6.3,0.679959,2,1,59019.7,54367.8,1625,0.33113199,-4.0219946,163.25635,53.006348,65.7914,287.211,4.8278,14.7966,31.2145,29.9591
1975-03-10 01:07:53,1,27.8429,1.27143,6.35714,0.522162,2,1,87139.8,59090.4,1625,0.33113199,-4.0219946,163.25049,53.006348,74.3747,283.317,-5.80161,-5.67518,37.9285,31.2332
1975-03-10 01:08:34,1,27.9625,1.4625,2.0,1.0098,2,1,49942.6,50569.1,1625,0.33112663,-4.0215454,163.24821,53.009933,60.5284,281.375,-4.59205,7.375,28.714,28.8935
1975-03-10 01:09:14,1,27.7375,-1.7875,0.0625,0.856318,2,1,53165.7,43513.3,1625,0.33112133,-4.0210962,163.24594,53.013519,71.627,280.905,1.04008,7.30168,29.626,26.8021
1975-03-10 01:09:55,1,25.5714,-6.21429,-4.8,1.28857,2,1,67038.7,51477.4,1625,0.33112133,-4.0210962,163.23814,53.013535,64.4601,286.665,11.8577,11.9273,33.2675,29.1519
1975-03-10 01:10:35,1,25.6714,-6.28571,-4.34286,0.8652,2,1,71032.4,53406.7,1625,0.33111602,-4.020647,163.23587,53.01712,67.7048,285.724,9.54281,19.2813,34.2441,29.6931
1975-03-10 01:11:16,1,25.45,-7.3,-4.0625,0.993652,2,1,86011.5,48902.6,1625,0.33111066,-4.0201979,163.2336,53.020706,75.8964,287.987,11.8161,12.5207,37.6822,28.4135
1975-03-10 01:11:56,1,23.425,-8.4125,-7.95,1.34832,2,1,70147.8,52771.6,1625,0.33111066,-4.0201979,163.22774,53.020706,70.3349,293.763,12.2192,24.5535,34.0302,29.516
1975-03-10 01:12:37,1,24.4714,-7.64286,-6.07143,0.891685,2,1,51590.0,47373.0,1625,0.33110535,-4.0197487,163.22548,53.024307,61.1177,289.454,11.8907,25.4221,29.1837,27.9656
1975-03-10 01:13:17,1,24.7143,-6.25714,-6.51429,0.462027,2,1,56870.6,54459.5,1625,0.33109999,-4.0192995,163.22321,53.027893,65.811,288.032,11.5378,19.3882,30.6409,29.9843
1975-03-10 01:13:58,1,24.9375,-5.5,-6.2,1.28446,2,1,65138.5,56121.9,1625,0.33109999,-4.0192995,163.21539,53.027893,67.0411,284.853,10.4352,22.3168,32.7927,30.4386
1975-03-10 01:14:38,1,25.2375,-4.45,10.7,0.959085,2,1,55119.1,44618.3,1625,0.33109468,-4.0188503,163.21313,53.031494,71.2063,288.497,7.13263,-7.55724,30.1654,27.1403
1975-03-10 01:15:19,1,25.4143,-4.55714,10.4571,1.79853,2,1,80927.3,64248.4,1625,0.33108938,-4.0184011,163.21086,53.03508,77.3621,286.373,4.80835,-14.4226,36.5515,32.5679
1975-03-10 01:15:59,1,26.0,-4.4875,-1.75,0.767199,2,1,58612.0,48518.3,1625,0.33108932,-4.0184011,163.205,53.03508,72.9256,285.64,4.97437,11.9915,31.1065,28.3016
1975-03-10 01:16:40,1,25.475,-5.3875,11.05,1.12715,2,1,55378.7,57243.9,1625,0.33108401,-4.017952,163.20274,53.038681,61.663,282.08,4.63076,-11.4315,30.2363,30.7413
1975-03-10 01:17:20,1,26.3875,-4.75,4.9,0.921191,2,1,78637.0,54128.8,1625,0.33107871,-4.0175028,163.20047,53.042267,72.8851,279.341,8.34682,-0.399257,36.0306,29.8932
1975-03-10 01:18:01,1,26.425,-3.7,0.4,0.359687,2,1,51855.5,50007.5,1625,0.33107334,-4.0170536,163.19624,53.045853,64.0028,282.482,4.59782,9.13595,29.2587,28.7326
1975-03-10 01:18:41,1,26.425,-3.05,-2.2,0.647592,2,1,83921.2,49330.0,1625,0.33107334,-4.0170536,163.19038,53.045853,68.6347,283.269,6.19,14.2486,37.2215,28.5373
1975-03-10 01:19:22,1,26.8714,-3.34286,0.228571,0.371429,2,1,56831.7,59839.5,1625,0.33106804,-4.0166044,163.18813,53.049454,68.7317,282.336,3.34601,8.19415,30.6304,31.4305
1975-03-10 01:20:02,1,26.4375,-3.7375,-1.2,0.806032,2,1,55150.9,53164.1,1625,0.33106273,-4.0161552,163.18585,53.05304,63.9149,282.897,6.75104,11.8872,30.1741,29.6256
1975-03-10 01:22:16,-1,nan,nan,nan,nan,2,4,nan,nan,1625,0.33105206,-4.0152569,163.17351,53.060226,nan,nan,nan,nan,nan,nan
1975-03-10 01:22:57,1,26.35,-1.35,-3.45,0.259808,2,1,68077.0,42183.3,1625,0.33105206,-4.0152559,163.1657,53.060226,57.5729,280.63,4.15237,12.4143,33.5242,26.3893
1975-03-10 01:23:25,1,26.1125,-1.2625,-4.65,1.10383,2,1,63331.7,50257.6,1625,0.3310467,-4.0148077,163.16539,53.063828,72.2209,284.678,2.55355,11.6853,32.3347,28.8044
1975-03-10 01:24:05,1,26.45,-0.325,-3.1,0.565133,2,1,106846.0,48829.7,1625,0.3310414,-4.0143585,163.16312,53.067413,77.5643,287.725,-3.25023,9.32136,41.9988,28.3922
1975-03-10 01:24:46,1,27.1375,0.3375,0.15,0.528855,2,1,62380.6,53527.2,1625,0.3310414,-4.0143576,163.15726,53.067413,68.8086,280.827,-3.00691,11.1252,32.0909,29.7266
1975-03-10 01:25:26,1,25.6429,4.6,-4.6,1.01539,2,1,59508.4,47225.7,1625,0.33103609,-4.0139093,163.15498,53.070999,64.3849,284.172,-10.1625,16.3906,31.3435,27.922
1975-03-10 01:26:07,1,27.4375,-2.35,4.75,0.421122,2,1,56352.8,52990.5,1625,0.33103073,-4.0134602,163.15273,53.0746,72.1505,282.711,3.61193,0.185561,30.5011,29.5772
1975-03-10 01:26:47,1,26.65,-4.8625,6.55,1.23282,2,1,69623.3,50709.8,1625,0.33103073,-4.0134592,163.14491,53.0746,67.2895,283.428,1.79839,-2.26313,33.9028,28.9337
1975-03-10 01:27:28,1,27.15,-2.2375,5.35,0.758185,2,1,61322.6,59124.1,1625,0.33102542,-4.01301,163.14264,53.078186,66.6482,282.485,2.93921,-2.70567,31.8177,31.2421
1975-03-10 01:28:08,1,26.8,-4.0625,6.55,0.999922,2,1,94079.5,50382.5,1625,0.33102006,-4.0125618,163.14038,53.081787,71.3633,281.255,3.57912,-3.25345,39.4099,28.8402
1975-03-10 01:28:49,1,27.2,-4.71429,5.37143,0.723371,2,1,46984.8,42383.0,1625,0.33102006,-4.0125608,163.13452,53.081787,59.9672,280.597,9.69944,-1.28732,27.8507,26.4517
1975-03-10 01:29:29,1,26.1375,-8.2,5.5,0.634306,2,1,42368.5,48261.0,1625,0.33101475,-4.0121117,163.13225,53.085373,66.7908,284.159,12.0168,-3.89228,26.4472,28.2264
1975-03-10 01:30:10,1,25.25,-10.375,6.25,0.359687,2,1,69963.3,48429.1,1625,0.33100945,-4.0116625,163.12999,53.088974,76.5645,285.365,16.5798,-2.08274,33.9855,28.2755
1975-03-10 01:30:50,1,24.925,-11.7375,4.45,1.16693,2,1,65051.6,52862.8,1625,0.33100939,-4.0116625,163.12218,53.088974,69.8115,284.111,16.0145,-4.03272,32.7708,29.5415
1975-03-10 01:31:31,1,24.3143,-12.3571,1.32857,2.58457,2,1,64697.8,47493.9,1625,0.33100408,-4.0112133,163.1199,53.09256,70.1675,286.648,17.6307,1.25825,32.6816,28.0012
1975-03-10 01:32:11,1,23.0429,-14.3857,0.0857143,0.44949,2,1,74061.3,48102.4,1625,0.33099878,-4.0107641,163.11763,53.096146,69.3513,292.21,23.214,7.84841,34.9666,28.18
1975-03-10 01:32:52,1,23.975,-5.35,14.725,2.87815,2,1,51925.3,62577.0,1625,0.33099878,-4.0107641,163.11179,53.096161,72.9061,286.953,13.4015,-12.5176,29.2784,32.1414
1975-03-10 01:33:32,1,23.9,-8.225,12.875,1.75962,2,1,67483.7,51717.2,1625,0.33099341,-4.0103149,163.10951,53.099747,69.9606,287.381,11.1688,-17.8407,33.3778,29.2197
1975-03-10 01:34:13,1,22.6429,-5.38571,16.8571,0.663633,2,1,75359.6,57767.8,1625,0.33098811,-4.0098658,163.10724,53.103333,75.4237,288.811,11.2269,-24.5606,35.2718,30.8817
1975-03-10 01:34:53,1,24.0286,-6.7,13.8429,1.27343,2,1,83321.9,46869.0,1625,0.33098811,-4.0098658,163.09943,53.103333,73.9391,291.568,11.0003,-19.2169,37.0884,27.8164
1975-03-10 01:35:34,1,23.4875,-3.35,16.75,1.598,2,1,64566.9,62614.8,1625,0.3309828,-4.0094166,163.09717,53.106934,74.4944,286.632,11.0407,-21.328,32.6485,32.1512
1975-03-10 01:36:14,1,24.05,-6.4,14.1625,1.03191,2,1,62962.9,59483.0,1625,0.33097744,-4.0089674,163.09489,53.110519,67.3773,286.423,12.0164,-15.2726,32.2404,31.3368
1975-03-10 01:36:55,1,23.5143,-7.32857,15.4,0.501833,2,1,68627.1,55116.3,1625,0.33097744,-4.0089674,163.08904,53.110519,63.7117,289.274,12.9735,-20.6381,33.6594,30.1646
1975-03-10 01:37:35,1,23.1429,-8.5,14.8857,1.32696,2,1,102450.0,50803.8,1625,0.33097214,-4.0085182,163.08678,53.11412,77.5374,289.695,9.55566,-17.1495,41.1258,28.9605
1975-03-10 01:38:16,1,21.1375,-8.0375,18.2,0.353111,2,1,69171.0,63543.0,1625,0.33096677,-4.008069,163.0845,53.117706,79.0121,288.782,13.2389,-25.5365,33.7925,32.3886